[Iaude] MPEC V233: 2023 VE8 [a=2.41,e=0.58,i=7.2,H=25.1]
    mpec at marsden.cfa.harvard.edu 
    mpec at marsden.cfa.harvard.edu
       
    Mon Nov 13 10:47:41 EST 2023
    
    
  
M.P.E.C. 2023-V233                            Issued 2023 November 13, 15:46 UT
     The Minor Planet Electronic Circulars contain information on unusual
         minor planets, routine data on comets and natural satellites,
         and occasional editorial announcements.  They are published
    on behalf of Division F of the International Astronomical Union by the
          Minor Planet Center, Smithsonian Astrophysical Observatory,
                          Cambridge, MA 02138, U.S.A.
			  
             Prepared using the Tamkin Foundation Computer Network
                              MPC at CFA.HARVARD.EDU
            URL https://www.minorplanetcenter.net/    ISSN 1523-6714
                                    2023 VE8                                    
Observations:
     K23V08E* C2023 11 11.53357507 44 53.965+34 25 28.05         21.42wXEV233F52
     K23V08E  C2023 11 11.54710207 44 58.164+34 26 33.45         21.11wXEV233F52
     K23V08E  C2023 11 11.56068907 45 02.306+34 27 38.18         21.21wXEV233F52
     K23V08E  C2023 11 11.64754807 45 28.385+34 34 19.28         21.52GVEV233F51
     K23V08E  C2023 11 11.64818807 45 28.541+34 34 21.87         21.36GVEV233F51
     K23V08E 2C2023 11 12.18187007 48 38.936+35 13 08.88         22.2 GVEV233J04
     K23V08E 2C2023 11 12.18806807 48 40.691+35 13 35.68         21.2 GVEV233J04
     K23V08E 2C2023 11 12.19421807 48 42.429+35 14 02.12         21.3 GVEV233J04
     K23V08E 1C2023 11 13.17659 07 53 54.35 +36 18 23.8          21.5 VXEV233033
     K23V08E 1C2023 11 13.17977 07 53 55.19 +36 18 36.3          21.1 VXEV233033
     K23V08E KC2023 11 13.36387607 54 54.53 +36 30 14.3          21.7 GVEV233H21
     K23V08E KC2023 11 13.37226407 54 56.69 +36 30 45.4          21.6 GVEV233H21
     K23V08E KC2023 11 13.37785607 54 58.10 +36 31 06.3          21.3 GVEV233H21
     K23V08E KC2023 11 13.38074507 54 58.82 +36 31 17.6          21.5 GVEV233H21
     K23V08E KC2023 11 13.43866207 55 16.435+36 35 01.54         21.51GVEV233I52
     K23V08E KC2023 11 13.44618807 55 18.282+36 35 29.51         21.19GVEV233I52
     K23V08E KC2023 11 13.45368807 55 20.154+36 35 57.23         21.76GVEV233I52
     K23V08E KC2023 11 13.52681107 55 37.988+36 40 20.21         21.45GVEV233I52
Observer details:
033 Karl Schwarzschild Observatory, Tautenburg.  Observers S. Melnikov, C.
    Hogner, F. Ludwig, M. Hartmann, B. Stecklum.  Measurer B. Stecklum.
    1.34-m f/3 Schmidt + CCD.
F51 Pan-STARRS 1, Haleakala.  Observers J. Bulger, T. Lowe, P. Minguez, A.
    Schultz, I. Smith.  Measurers K. Chambers, T. de Boer, J. Fairlamb, H.
    Gao, M. Huber, C.-C. Lin, E. Magnier, Y. Ramanjooloo, R. Wainscoat, R.
    Weryk.  1.8-m Ritchey-Chretien + CCD.
F52 Pan-STARRS 2, Haleakala.  Observers J. Bulger, T. Lowe, P. Minguez, A.
    Schultz, I. Smith.  Measurers K. Chambers, T. de Boer, J. Fairlamb, H.
    Gao, M. Huber, C.-C. Lin, E. Magnier, Y. Ramanjooloo, R. Wainscoat, R.
    Weryk.  1.8-m Ritchey-Chretien + CCD.
H21 Astronomical Research Observatory, Westfield.  Observer R. Holmes.
    Measurers T. Linder, R. Holmes, L. Horn.  0.76-m f/3.0 astrograph + CCD.
I52 Steward Observatory, Mt. Lemmon Station.  Observer J. K. Hogan.  Measurers
    E. C. Beshore, D. Fay, J. B. Fazekas, D. C. Fuls, A. R. Gibbs, A. D.
    Grauer, H. Groeller, J. K. Hogan, R. A. Kowalski, S. M. Larson, G. J.
    Leonard, D. Rankin, R. L. Seaman, F. C. Shelly, K. W. Wierzchos.  1.0-m
    prime focus + CCD.
J04 ESA Optical Ground Station, Tenerife.  Observers D. Abreu, F. Ocana, M.
    Micheli, L. Conversi.  Measurers M. Micheli, R. Kresken, F. Ocana.
    1.0-m f/4.4 reflector + CCD.
Orbital elements:
2023 VE8                                                 Earth MOID = 0.0228 AU
Epoch 2023 Sept. 13.0 TT = JDT 2460200.5                MPC                     
M 346.94829              (2000.0)            P               Q                  
n   0.26295045     Peri.  354.87533     +0.76584456     -0.63695050             
a   2.4129784      Node    45.09860     +0.59429976     +0.64875858             
e   0.5798716      Incl.    7.15159     +0.24554004     +0.41642091             
P   3.75           H   25.11          G   0.15           U   8                  
Residuals in seconds of arc
231111 F52  0.1-  0.3-    231112 J04  0.0   0.1+    231113 H21  0.0   0.5-
231111 F52  0.2+  0.0     231112 J04  0.1-  0.1-    231113 H21  0.1-  0.0
231111 F52  0.1+  0.2-    231113 033  0.2+  0.2+    231113 I52  0.2-  0.5+
231111 F51  0.2+  0.2+    231113 033  0.2+  1.0+    231113 I52  0.3-  0.5+
231111 F51  0.3-  0.1-    231113 H21  0.2-  0.1+    231113 I52  0.0   0.4+
231112 J04  0.1+  0.2+    231113 H21  0.1+  0.4-    231113 I52  0.4+  0.2+
Ephemeris:
2023 VE8                 a,e,i = 2.41, 0.58, 7                   q = 1.0138
Date    TT    R. A. (2000) Decl.     Delta      r    Elong.  Phase     V
2023 10 14    00 17 00.0 -50 09 47   0.08229 1.0421   120.7    55.4    21.8
...
2023 10 29    04 38 13.7 -19 12 24   0.03188 1.0148   131.3    47.3    19.4
...
2023 11 06    06 58 32.7 +23 23 46   0.04663 1.0153   119.6    58.1    20.6
...
2023 11 12    07 47 33.8 +34 59 53   0.07024 1.0226   115.8    60.7    21.6
2023 11 13    07 53 00.8 +36 07 44   0.07447 1.0243   115.7    60.5    21.7
2023 11 14    07 57 54.4 +37 07 34   0.07874 1.0263   115.8    60.3    21.8
...
2023 11 20    08 18 21.9 +41 15 27   0.1049  1.0411   117.7    57.2    22.4
...
2023 11 28    08 30 20.2 +44 14 08   0.1403  1.0691   122.7    50.9    22.9
...
2023 12 13    08 26 42.0 +46 49 31   0.2084  1.1427   135.6    37.1    23.5
A. U. Tomatic                (C) Copyright 2023 MPC           M.P.E.C. 2023-V233
    
    
More information about the Iaude
mailing list